Gao Fen 9-02

operational
NORAD ID: 45625 Int'l Des: 2020-034 Owner: CNSAS Country: CN
LEOCIRCULARRETROGRADESSO

About Gao Fen 9-02

Description loading...

Live Position

Loading 3D Globe...

Upcoming Passes

Altitude History

Altitude vs Time

uPlot chart will show altitude changes over time

Two-Line Element Set

1 45625U 20034B 26062.56924971 .00010391 00000-0 42296-3 0 9990
2 45625 97.5589 218.7084 0013953 81.1758 279.1059 15.24607148320060
Epoch: Mar 3, 2026 • Age: 22 hours

Current Status

Altitude 489.8 km
Velocity 7.62 km/s
Sub-Earth Point 19.49°N, 90.34°E
Launch Date May 31, 2020
Age 5.7 years
Type other

Technical Details

Classification Payload
Mass 1700.00 kg
Dry Mass 1500.00 kg
Total Mass 1700.00 kg
Length 1.90 m
Diameter 1.50 m
Span 4.00 m
Shape Box+2 pan
Manufacturer DFHZ
Bus Type CAST-3000
Phase Status In Orbit
Owner/State CNSAS/CN

Large Constellations

Loading constellations...